Location: Sternwarte_Laufen
(47.9344°N, 12.9346°E)
Time: 00:37:49
(UTC+02:00)

ISS - Pass Details

Date: 14 July 2018
Orbit: 402 x 408 km, 51.6° (Epoch: 19 July)

Event Time Altitude Azimuth Distance (km) Brightness Sun altitude
Rises 04:13:28 0° 283° (WNW) 2,332 -0.3 -9.6°
Reaches altitude 10° 04:15:37 10° 291° (WNW) 1,472 -1.2 -9.4°
Maximum altitude 04:18:47 42° 4° (N) 597 -2.5 -9.0°
Drops below altitude 10° 04:21:57 10° 77° (ENE) 1,473 0.0 -8.7°
Sets 04:24:06 0° 85° (E) 2,334 0.9 -8.4°
